Location: *
(58.4167°N, 22.5000°E)
Time: 11:42:23
(UTC+00:00)

SL-14 R/B - Pass Details

Date: 22 September 2019
Orbit: 517 x 556 km, 82.4° (Epoch: 18 October)

Event Time Altitude Azimuth Distance (km) Brightness Sun altitude
Rises 18:05:25 0° 349° (N) 2,731 7.4 -12.9°
Reaches altitude 10° 18:07:42 10° 356° (N) 1,827 6.3 -13.2°
Maximum altitude 18:11:32 43° 69° (ENE) 774 3.7 -13.7°
Enters shadow 18:13:34 23° 128° (SE) 1,164 4.4 -13.9°
